TimeCST,TemperatureF,Dew PointF,Humidity,Sea Level PressureIn,VisibilityMPH,Wind Direction,Wind SpeedMPH,Gust SpeedMPH,PrecipitationIn,Events,Conditions,WindDirDegrees,DateUTC
12:15 AM,64.4,53.6,68,29.82,10.0,SSE,18.4,23.0,N/A,,Clear,160,2012-11-11 06:15:00
12:35 AM,64.4,53.6,68,29.83,10.0,South,15.0,21.9,N/A,,Clear,170,2012-11-11 06:35:00
12:55 AM,64.4,53.6,68,29.81,10.0,SSE,16.1,-,N/A,,Clear,160,2012-11-11 06:55:00
1:15 AM,64.4,55.4,73,29.81,10.0,SSE,16.1,23.0,N/A,,Clear,160,2012-11-11 07:15:00
1:35 AM,64.4,55.4,73,29.81,10.0,South,18.4,26.5,N/A,,Scattered Clouds,170,2012-11-11 07:35:00
1:55 AM,64.4,55.4,73,29.81,10.0,South,15.0,26.5,N/A,,Scattered Clouds,170,2012-11-11 07:55:00
2:15 AM,64.4,55.4,73,29.80,10.0,South,20.7,27.6,N/A,,Scattered Clouds,170,2012-11-11 08:15:00
2:35 AM,64.4,55.4,73,29.79,10.0,South,18.4,26.5,N/A,,Scattered Clouds,170,2012-11-11 08:35:00
2:55 AM,64.4,55.4,73,29.78,10.0,South,20.7,28.8,N/A,,Mostly Cloudy,170,2012-11-11 08:55:00
3:15 AM,64.4,55.4,73,29.79,10.0,South,18.4,28.8,N/A,,Mostly Cloudy,170,2012-11-11 09:15:00
3:35 AM,64.4,55.4,73,29.82,10.0,SSW,17.3,-,N/A,,Mostly Cloudy,200,2012-11-11 09:35:00
3:55 AM,64.4,55.4,73,29.82,10.0,South,17.3,25.3,N/A,,Overcast,190,2012-11-11 09:55:00
4:15 AM,64.4,55.4,73,29.82,10.0,South,15.0,23.0,N/A,,Overcast,180,2012-11-11 10:15:00
4:35 AM,64.4,55.4,73,29.81,10.0,South,17.3,24.2,N/A,,Overcast,180,2012-11-11 10:35:00
4:55 AM,64.4,55.4,73,29.80,10.0,South,18.4,23.0,N/A,,Overcast,170,2012-11-11 10:55:00
5:15 AM,64.4,55.4,73,29.80,10.0,South,20.7,27.6,N/A,,Overcast,170,2012-11-11 11:15:00
5:35 AM,64.4,55.4,73,29.79,10.0,South,17.3,26.5,N/A,,Overcast,170,2012-11-11 11:35:00
5:55 AM,64.4,55.4,73,29.79,10.0,South,19.6,27.6,N/A,,Overcast,180,2012-11-11 11:55:00
6:15 AM,66.2,55.4,68,29.79,10.0,South,17.3,32.2,N/A,,Overcast,170,2012-11-11 12:15:00
6:35 AM,64.4,55.4,73,29.78,10.0,SSE,18.4,26.5,N/A,,Overcast,160,2012-11-11 12:35:00
6:55 AM,64.4,55.4,73,29.79,10.0,South,20.7,27.6,N/A,,Overcast,170,2012-11-11 12:55:00
7:15 AM,64.4,55.4,73,29.79,10.0,South,20.7,28.8,N/A,,Overcast,170,2012-11-11 13:15:00
7:35 AM,64.4,55.4,73,29.79,10.0,South,19.6,28.8,N/A,,Overcast,170,2012-11-11 13:35:00
7:55 AM,66.2,55.4,68,29.78,10.0,SSE,21.9,34.5,N/A,,Overcast,160,2012-11-11 13:55:00
8:15 AM,66.2,55.4,68,29.78,10.0,South,23.0,34.5,N/A,,Overcast,170,2012-11-11 14:15:00
8:55 AM,64.4,55.4,73,29.78,10.0,South,19.6,39.1,N/A,,Overcast,170,2012-11-11 14:55:00
9:15 AM,64.4,57.2,77,29.79,10.0,South,19.6,27.6,N/A,,Overcast,170,2012-11-11 15:15:00
9:35 AM,53.6,50.0,88,29.82,10.0,NNW,16.1,29.9,N/A,,Overcast,340,2012-11-11 15:35:00
9:55 AM,50.0,50.0,100,29.84,4.0,NNW,19.6,-,0.09,Rain,Rain,330,2012-11-11 15:55:00
10:15 AM,50.0,48.2,94,29.86,5.0,NW,16.1,23.0,0.02,Rain,Rain,320,2012-11-11 16:15:00
10:35 AM,50.0,48.2,94,29.88,5.0,NW,12.7,18.4,0.06,Rain,Light Rain,310,2012-11-11 16:35:00
10:55 AM,50.0,48.2,94,29.87,7.0,NNW,15.0,-,0.07,Rain,Light Rain,330,2012-11-11 16:55:00
11:15 AM,50.0,48.2,94,29.90,7.0,NW,8.1,-,0.01,Rain-Thunderstorm,Light Thunderstorms and Rain,310,2012-11-11 17:15:00
11:35 AM,50.0,48.2,94,29.88,7.0,NNW,5.8,-,0.04,Rain,Light Rain,330,2012-11-11 17:35:00
11:55 AM,50.0,48.2,94,29.90,7.0,West,9.2,-,0.07,Rain,Rain,280,2012-11-11 17:55:00
12:15 PM,48.2,48.2,100,29.91,7.0,West,8.1,-,0.06,Rain,Light Rain,270,2012-11-11 18:15:00
12:35 PM,48.2,46.4,93,29.89,7.0,West,6.9,-,0.10,Rain,Light Rain,280,2012-11-11 18:35:00
12:55 PM,48.2,46.4,93,29.88,7.0,West,3.5,-,0.14,Rain,Light Rain,280,2012-11-11 18:55:00
1:15 PM,48.2,44.6,87,29.88,10.0,NW,5.8,-,0.01,Rain,Light Rain,310,2012-11-11 19:15:00
1:35 PM,48.2,46.4,93,29.92,7.0,West,4.6,-,0.04,Rain,Light Rain,280,2012-11-11 19:35:00
2:15 PM,48.2,44.6,87,29.89,10.0,NNW,5.8,-,N/A,Rain,Light Rain,330,2012-11-11 20:15:00
2:35 PM,48.2,44.6,87,29.92,10.0,NW,3.5,-,0.02,Rain,Light Rain,310,2012-11-11 20:35:00
2:55 PM,46.4,46.4,100,29.91,10.0,NW,4.6,-,0.06,Rain,Light Rain,320,2012-11-11 20:55:00
3:15 PM,46.4,46.4,100,29.93,10.0,West,3.5,-,0.01,,Light Drizzle,280,2012-11-11 21:15:00
3:35 PM,42.8,42.8,100,29.94,2.5,NW,18.4,-,0.04,Rain-Thunderstorm,Thunderstorms and Rain,310,2012-11-11 21:35:00
3:55 PM,37.4,37.4,100,29.97,7.0,NW,13.8,19.6,0.04,,Drizzle,310,2012-11-11 21:55:00
4:15 PM,37.4,35.6,93,29.98,10.0,NW,16.1,-,N/A,Rain,Light Rain,320,2012-11-11 22:15:00
4:35 PM,37.4,35.6,93,29.98,10.0,NW,11.5,-,N/A,Rain,Light Rain,310,2012-11-11 22:35:00
4:55 PM,35.6,35.6,100,30.01,10.0,NNW,12.7,-,N/A,,Overcast,330,2012-11-11 22:55:00
5:15 PM,35.6,35.6,100,30.02,10.0,NW,10.4,16.1,N/A,,Overcast,310,2012-11-11 23:15:00
5:35 PM,35.6,35.6,100,30.04,10.0,NW,10.4,-,N/A,,Overcast,310,2012-11-11 23:35:00
5:55 PM,35.6,35.6,100,30.05,7.0,NW,11.5,-,N/A,,Overcast,310,2012-11-11 23:55:00
6:15 PM,35.6,33.8,93,30.05,10.0,NW,13.8,-,N/A,,Overcast,320,2012-11-12 00:15:00
6:35 PM,35.6,33.8,93,30.07,5.0,NW,12.7,-,N/A,,Overcast,310,2012-11-12 00:35:00
6:55 PM,33.8,33.8,100,30.08,4.0,WNW,11.5,17.3,N/A,,Overcast,300,2012-11-12 00:55:00
7:15 PM,33.8,33.8,100,30.10,5.0,WNW,12.7,18.4,N/A,,Overcast,290,2012-11-12 01:15:00
7:35 PM,33.8,32.0,93,30.12,10.0,NW,13.8,18.4,N/A,,Overcast,320,2012-11-12 01:35:00
7:55 PM,33.8,32.0,93,30.11,10.0,NW,16.1,-,N/A,,Overcast,320,2012-11-12 01:55:00
8:15 PM,33.8,32.0,93,30.12,10.0,NW,11.5,23.0,N/A,,Overcast,310,2012-11-12 02:15:00
8:35 PM,33.8,32.0,93,30.14,10.0,NW,15.0,18.4,N/A,,Overcast,310,2012-11-12 02:35:00
8:55 PM,32.0,32.0,100,30.16,10.0,NW,11.5,18.4,N/A,,Overcast,310,2012-11-12 02:55:00
9:15 PM,32.0,30.2,93,30.17,10.0,NW,12.7,18.4,N/A,,Overcast,320,2012-11-12 03:15:00
9:35 PM,32.0,30.2,93,30.19,10.0,NW,12.7,-,N/A,,Overcast,310,2012-11-12 03:35:00
9:55 PM,32.0,28.4,87,30.18,10.0,NW,13.8,19.6,N/A,,Mostly Cloudy,310,2012-11-12 03:55:00
10:15 PM,32.0,28.4,87,30.18,10.0,NW,11.5,-,N/A,,Scattered Clouds,320,2012-11-12 04:15:00
10:35 PM,32.0,28.4,87,30.19,10.0,NW,10.4,-,N/A,,Clear,320,2012-11-12 04:35:00
10:55 PM,32.0,28.4,87,30.20,10.0,NW,8.1,-,N/A,,Clear,320,2012-11-12 04:55:00
11:15 PM,32.0,28.4,87,30.20,10.0,NW,8.1,-,N/A,,Clear,310,2012-11-12 05:15:00
11:35 PM,30.2,28.4,93,30.21,10.0,WNW,6.9,-,N/A,,Clear,300,2012-11-12 05:35:00
11:55 PM,30.2,28.4,93,30.22,10.0,NW,10.4,-,N/A,,Clear,320,2012-11-12 05:55:00